Retour au catalogue

STARLINK-5859

ActifCommunicationsVLEO
NORAD 55915·PAYLOAD·🇺🇸 United States

Lancé Mar 17, 2023 depuis Vandenberg Space Force Base

Loading…

Prochains Passages (prochaines 24 heures)

TLE

FraisSource: CelesTrak SupGP

Époque: Sep 14, 2026, 20:47 UTC

1 55915C 23037B   26257.86645833 -.00015505  00000+0 -12979-2 0  2579
2 55915  70.0018 187.5237 0003006 262.9251  66.2634 14.98382045    14

Suivez STARLINK-5859 en temps réel avec AllMySat

Download on the App Store